RH
6 7 7 7 8 8 8 9 9 10 11 11 12 13 13 14 14 14 18 18 16 18 18 17 17 18 18 18 18 18 19 19 18 17 16 15 16 15 15 16 15 14
9 9 9 10 9 9 10 10 9 10 10 10 12 13 13 13 13 13 14 15 15 16 16 15 15 15 15 16 17 18 18 17 15 14 14 14 14 13 12 13 12 11
14 13 12 13 13 13 13 12 13 13 13 13 13 13 14 14 14 13 13 15 15 15 15 15 15 15 16 15 16 16 17 18 16 14 13 12 12 11 10 10 9 8
16 16 16 16 16 17 17 16 16 16 17 18 17 17 17 17 16 14 15 15 16 16 17 18 16 17 18 16 14 15 14 14 13 11 11 10 9 10 9 9 8 8
18 17 20 20 19 19 19 18 18 18 19 21 21 21 20 21 19 18 18 16 15 15 15 16 16 15 16 15 14 14 12 14 16 12 10 10 10 11 11 12 13 13
19 19 22 24 23 23 22 20 19 19 20 20 21 21 22 23 21 20 21 19 20 22 22 25 25 21 23 22 18 17 15 17 19 15 13 14 12 12 14 15 16 15
18 19 22 25 27 28 27 26 25 24 24 23 22 22 23 26 25 23 23 23 26 31 32 35 33 29 29 27 22 21 19 18 18 15 17 17 14 14 17 18 16 15
16 19 23 25 28 30 31 32 31 31 32 31 29 26 25 26 27 25 25 25 29 31 30 31 31 28 27 25 22 22 21 22 22 22 22 22 21 20 19 18 16 14
14 16 20 23 26 28 30 32 32 32 34 36 37 34 32 32 30 27 25 25 29 32 33 33 33 32 32 30 28 26 26 25 24 25 26 27 28 26 23 23 21 19
15 15 18 20 23 25 26 29 31 32 34 36 37 37 37 38 36 32 29 28 28 30 31 32 32 32 32 32 32 32 32 33 30 29 28 26 25 25 25 25 24 24
16 15 17 18 19 21 21 22 24 26 31 35 36 36 36 37 37 35 33 33 31 27 25 28 28 27 26 25 27 28 29 30 30 29 31 31 28 26 28 29 28 28
14 14 15 14 15 16 16 17 17 17 21 25 29 30 29 30 31 33 36 35 31 24 20 22 22 25 27 24 25 30 34 35 32 30 38 48 47 37 38 45 43 41
12 14 14 12 13 13 13 14 14 14 14 16 21 23 23 22 21 26 32 34 31 22 17 20 22 23 26 29 30 29 30 38 40 34 33 42 47 39 39 49 48 44
12 13 15 15 15 14 15 15 13 12 13 13 16 19 20 20 17 17 21 27 33 27 20 23 24 18 21 33 39 30 20 26 35 35 31 37 50 51 46 46 45 45
12 14 16 16 17 17 20 23 18 14 12 12 14 15 16 17 17 16 15 21 32 34 32 39 40 29 24 30 40 40 31 30 33 33 34 43 56 62 56 50 50 57
16 15 15 16 20 23 28 34 34 28 22 18 16 15 15 15 15 16 15 17 24 27 31 44 48 38 29 24 32 39 38 40 44 37 35 42 49 52 53 53 55 60
18 15 16 18 23 26 31 39 45 47 42 36 29 23 19 18 16 17 16 15 19 22 28 40 36 23 19 19 23 27 25 28 36 31 25 26 31 41 49 52 51 49
17 17 21 23 24 24 27 35 43 48 47 46 47 42 31 21 15 18 19 15 17 23 37 58 61 46 32 21 16 18 16 15 16 15 12 10 13 24 35 44 49 46
22 22 25 25 26 24 25 27 30 32 33 40 53 58 51 37 22 17 20 19 17 18 26 46 66 73 61 37 22 20 17 14 11 9 9 10 10 11 14 26 39 37
27 24 25 24 25 24 23 23 26 29 29 33 46 54 59 57 42 26 19 17 17 18 16 18 39 64 64 43 32 26 17 14 14 11 12 11 10 15 19 22 25 20
29 24 25 25 26 25 25 31 43 52 51 48 51 54 59 64 59 42 24 15 15 18 17 19 38 57 48 26 23 21 15 17 17 12 14 13 12 24 33 30 23 16
36 38 41 43 47 49 48 52 59 63 64 68 73 72 69 70 69 58 41 30 29 28 20 19 36 49 32 13 16 17 16 27 27 14 13 18 23 34 38 33 29 22
53 56 58 63 72 79 82 81 76 68 67 75 82 80 78 79 78 74 68 62 59 54 41 31 42 57 46 27 25 26 28 42 43 30 26 30 31 34 37 37 38 36
62 63 65 73 84 90 91 91 89 86 82 81 81 81 85 90 88 85 87 87 83 79 72 60 62 74 71 51 34 30 37 51 53 46 45 48 47 47 53 57 58 61
69 73 76 82 87 88 87 84 83 88 90 88 86 85 88 94 97 95 95 96 96 93 89 81 74 74 76 64 41 29 36 51 58 57 59 64 68 70 73 76 76 76
77 81 85 88 87 87 89 86 82 86 91 93 93 93 93 95 98 99 97 98 101 98 93 91 85 79 80 74 54 40 41 47 54 63 68 73 79 81 80 80 78 76
Wind_Speed
11 12 11 10 10 9 9 9 9 8 8 8 7 7 7 6 6 5 5 4 4 3 3 3 3 3 3 3 3 3 2 2 2 2 2 1 1 1 2 2 2 3
11 11 10 10 9 9 9 8 8 8 8 7 7 7 7 7 7 6 6 5 5 4 4 4 3 3 3 3 2 2 2 2 2 2 2 2 2 2 3 3 4 4
12 11 10 10 9 9 9 9 8 8 7 7 7 7 7 7 7 7 7 7 6 6 5 5 5 4 4 4 3 3 3 2 3 2 2 2 3 3 4 4 4 4
12 12 11 11 10 10 10 10 9 8 8 8 8 8 8 8 8 8 8 8 7 7 7 6 6 6 5 5 5 5 4 4 4 4 3 3 3 3 4 4 4 5
13 12 12 11 11 11 11 11 10 9 9 9 9 9 9 9 9 9 9 8 8 7 7 7 7 6 6 6 6 6 6 6 6 5 4 4 4 4 4 4 4 4
13 13 13 13 12 12 12 12 11 10 10 10 10 10 10 10 10 10 10 10 9 8 8 7 8 8 7 7 8 7 7 7 7 7 6 6 6 5 5 5 5 5
15 15 15 14 14 14 14 13 12 12 11 11 11 11 11 11 11 11 11 11 10 10 10 10 9 9 9 9 9 9 9 9 9 9 8 8 8 7 6 6 6 6
17 17 16 16 16 16 15 15 14 14 13 13 12 12 11 11 11 11 12 12 12 12 12 12 11 11 11 11 11 11 10 10 10 9 9 9 9 9 9 8 8 8
18 18 18 17 17 17 17 17 16 16 15 15 14 13 12 12 12 12 12 12 13 13 13 13 12 12 12 12 12 12 11 11 11 11 11 11 11 11 11 10 10 10
19 19 19 18 18 18 18 18 18 17 17 16 16 15 14 14 13 13 13 13 13 13 14 14 13 13 13 13 13 13 13 13 12 12 12 12 12 12 12 12 12 12
20 20 20 19 19 19 19 19 19 18 18 18 18 17 16 16 16 16 15 15 14 14 15 15 15 15 15 14 14 14 14 14 14 14 14 14 13 13 14 14 13 13
22 22 22 21 21 21 21 20 20 19 19 19 19 19 18 18 18 17 17 16 16 15 16 16 16 16 16 16 15 15 15 15 15 15 15 15 15 15 15 15 14 14
25 24 24 24 23 23 23 22 22 22 21 20 20 20 20 20 20 19 18 17 17 16 16 16 16 16 16 16 16 17 16 16 17 17 16 15 16 16 16 16 16 15
27 26 25 25 25 25 25 24 24 24 23 22 21 22 22 22 21 20 19 18 18 18 17 17 17 18 18 18 18 18 18 18 18 18 17 16 16 16 16 16 16 15
28 27 26 26 26 25 25 24 24 24 24 24 23 24 24 23 22 21 20 19 19 19 18 18 19 19 20 21 20 20 20 20 20 20 20 19 18 19 18 17 16 16
28 27 27 27 26 24 23 23 24 25 25 24 24 25 25 24 24 24 23 22 21 21 21 21 21 22 24 24 23 22 22 22 22 22 22 21 20 21 20 20 20 20
29 29 28 27 26 24 24 24 25 26 26 26 25 26 26 26 26 26 25 24 23 23 24 24 24 26 27 27 25 24 24 24 25 25 24 23 23 24 22 22 23 23
30 29 28 28 27 26 26 26 27 28 29 28 27 26 27 28 28 28 28 28 27 26 26 25 26 28 29 29 28 27 26 26 27 27 27 26 26 26 25 25 25 25
29 28 28 28 27 27 27 28 29 30 30 30 29 29 29 29 29 29 29 30 30 28 27 27 29 30 30 29 28 28 28 28 27 27 27 27 27 27 27 27 27 27
29 28 27 26 27 27 27 28 28 28 29 30 29 30 29 29 29 30 30 31 31 30 29 30 32 32 32 31 30 30 29 29 28 27 27 27 27 26 26 27 28 28
29 27 26 26 26 26 26 27 28 28 29 29 29 30 30 29 29 30 29 30 30 30 30 32 33 34 34 34 33 32 31 30 29 28 28 27 27 26 26 27 28 28
29 28 28 27 27 27 27 29 30 30 30 31 32 33 32 31 31 32 30 29 29 29 30 32 35 37 36 35 35 34 33 31 30 29 28 28 27 27 28 28 29 29
30 29 29 30 29 29 31 32 33 33 34 35 36 37 37 35 34 33 32 31 31 30 30 32 36 37 36 34 34 34 33 32 30 29 29 29 29 29 30 30 30 29
31 32 33 33 33 35 37 37 37 38 38 38 38 39 40 38 36 35 35 35 35 33 32 34 37 37 35 34 34 34 34 33 33 32 31 30 31 31 31 31 30 30
34 36 37 38 38 39 40 41 41 42 43 43 43 43 42 40 38 36 35 37 38 38 37 38 39 39 37 35 33 34 35 35 35 34 33 33 32 32 33 33 32 32
36 36 36 37 38 37 38 40 41 41 42 44 45 45 45 44 42 39 38 38 40 42 43 42 42 41 39 36 34 35 36 37 37 36 35 35 35 35 35 35 35 35
Wind_Direction
190 188 189 190 190 190 190 191 190 189 191 193 195 197 198 201 201 196 193 192 190 188 184 183 181 180 179 176 175 172 172 176 179 184 199 224 252 270 277 279 289 295
198 195 192 193 193 192 193 194 196 196 198 200 202 204 209 213 215 213 212 214 217 218 218 218 218 217 216 214 205 201 203 206 211 215 227 250 270 279 284 288 293 298
206 205 200 200 200 198 198 199 200 201 202 205 208 210 215 220 224 224 223 224 227 230 232 232 235 238 241 242 239 233 233 232 235 242 247 259 274 286 293 298 301 304
210 211 209 208 209 207 208 207 206 207 208 210 214 218 222 226 230 232 231 230 229 231 236 239 241 244 248 252 254 256 258 261 259 258 258 261 270 280 291 300 305 307
212 215 216 215 216 215 215 215 214 215 216 217 220 224 228 231 234 237 238 238 237 236 239 243 246 249 252 257 261 264 268 272 272 272 271 269 271 276 285 292 293 297
216 219 221 221 222 222 222 221 219 219 222 223 224 226 228 230 234 238 241 242 244 246 247 250 252 253 255 258 262 266 269 270 272 274 275 275 276 276 277 280 282 284
218 220 222 223 225 226 227 227 226 224 226 227 229 230 229 230 233 236 239 240 242 245 247 250 253 256 256 257 260 264 267 269 271 274 277 277 278 276 274 275 277 280
220 221 223 225 226 227 229 230 230 229 230 231 232 233 233 234 236 238 240 240 240 242 245 249 254 259 261 261 262 264 265 268 271 275 278 278 279 279 278 277 277 278
226 225 227 228 229 230 231 231 233 233 234 236 237 238 238 239 240 242 243 243 243 244 246 248 252 257 261 263 265 265 266 268 270 272 275 278 280 281 280 280 280 279
229 229 230 231 232 234 234 235 236 236 238 240 242 243 244 245 246 247 248 248 249 250 251 252 254 256 259 262 264 266 266 267 268 270 272 273 274 277 277 277 277 277
233 232 233 234 236 237 237 238 239 240 242 244 247 248 248 250 250 251 252 253 255 256 256 257 258 258 258 259 261 263 266 267 267 267 270 272 273 275 275 276 276 277
235 236 236 237 239 240 240 240 241 242 243 245 249 251 252 252 253 254 255 256 257 258 258 258 259 260 260 259 258 259 260 262 263 263 266 270 272 272 271 272 272 272
235 236 238 240 241 244 245 245 245 245 245 246 249 253 254 254 254 254 255 256 257 257 258 258 258 258 259 258 257 256 253 253 256 259 260 263 265 267 268 268 267 267
237 238 240 242 244 246 248 249 250 251 251 250 251 253 255 257 257 256 255 256 257 257 257 257 258 258 258 257 257 256 254 253 256 259 260 260 260 262 265 267 269 271
240 241 243 245 247 249 252 255 257 258 259 259 258 258 258 260 262 262 259 256 256 257 257 257 258 259 260 260 259 259 258 257 258 259 259 261 263 263 266 269 271 272
244 245 246 248 251 253 256 260 262 264 264 264 264 265 264 265 265 264 263 260 258 259 258 258 258 259 259 260 260 260 261 261 262 262 261 264 266 266 268 271 270 270
245 247 248 250 251 251 253 255 257 260 261 260 262 264 265 265 265 265 264 262 260 260 260 260 263 264 263 262 261 260 260 261 262 264 264 266 266 265 266 268 267 267
247 248 249 250 250 250 250 252 254 257 258 259 258 258 258 260 261 261 262 261 259 258 259 262 264 265 265 264 264 264 262 260 260 262 264 264 265 265 266 267 267 267
249 250 250 252 253 253 252 252 253 255 257 258 256 255 257 259 260 259 258 259 259 257 259 261 261 262 265 266 267 265 263 261 261 262 264 264 264 264 264 264 264 263
249 250 250 250 251 252 252 252 252 254 256 257 256 257 258 260 262 261 260 260 260 260 259 259 259 260 264 268 268 266 265 265 264 264 264 264 263 263 263 263 263 260
243 244 245 245 246 247 248 250 251 253 257 259 260 260 259 259 260 262 263 263 262 262 261 260 259 260 263 266 267 267 266 266 264 263 263 262 261 262 262 262 261 259
237 240 242 244 246 249 251 252 252 252 255 260 262 261 260 259 258 260 263 265 264 262 260 259 260 262 263 265 266 266 265 264 263 261 259 258 258 258 258 259 259 259
240 242 245 247 249 251 253 254 255 254 255 257 258 258 259 260 261 261 260 261 261 259 256 256 258 260 261 261 262 263 263 262 261 259 256 255 255 255 255 257 259 259
247 249 251 254 255 255 255 256 256 255 255 255 253 255 258 260 261 261 259 258 258 256 254 255 256 257 258 258 259 261 261 260 259 258 255 255 256 256 257 258 259 260
252 255 258 259 259 258 258 257 255 254 255 256 255 255 257 258 260 261 259 257 257 255 254 256 256 256 258 259 259 259 258 257 258 258 257 257 257 258 260 261 261 261
256 258 260 260 259 258 258 257 255 254 254 255 255 256 257 256 255 255 253 253 256 255 254 256 258 258 259 261 260 258 257 256 257 257 258 259 260 261 262 263 263 263